| time (UTC) | temp F | wind direction | speed MPH | gust MPH | rain 1hr in | rain 24hr in | rain mn in | humidity % | barometer mb |
| 20260831214549 | 97 | 165 | 4.0 | 11.0 | 0.00 | 0.00 | 0.00 | 45 | 1013.0 |
| 20260831214536 | 97 | 165 | 4.0 | 11.0 | 0.00 | 0.00 | 0.00 | 45 | 1014.5 |
| 20260831213054 | 97 | 59 | 5.0 | 12.0 | 0.00 | 0.00 | 0.00 | 45 | 1013.0 |
| 20260831213033 | 97 | 92 | 6.0 | 12.0 | 0.00 | 0.00 | 0.00 | 45 | 1014.7 |
| 20260831211558 | 97 | 132 | 2.0 | 10.0 | 0.00 | 0.00 | 0.00 | 47 | 1013.2 |
| 20260831211530 | 97 | 132 | 2.0 | 10.0 | 0.00 | 0.00 | 0.00 | 48 | 1014.8 |
| 20260831210052 | 96 | 112 | 5.0 | 12.0 | 0.00 | 0.00 | 0.00 | 48 | 1013.4 |
| 20260831210029 | 96 | 133 | 6.0 | 12.0 | 0.00 | 0.00 | 0.00 | 49 | 1015.1 |
| 20260831204604 | 96 | 116 | 2.0 | 13.0 | 0.00 | 0.00 | 0.00 | 49 | 1013.6 |
| 20260831204533 | 96 | 113 | 5.0 | 10.0 | 0.00 | 0.00 | 0.00 | 50 | 1015.3 |
| 20260831203121 | 96 | 105 | 7.0 | 13.0 | 0.00 | 0.00 | 0.00 | 49 | 1014.0 |
| 20260831203027 | 96 | 105 | 7.0 | 13.0 | 0.00 | 0.00 | 0.00 | 49 | 1015.8 |
| 20260831201604 | 96 | 122 | 4.0 | 14.0 | 0.00 | 0.00 | 0.00 | 49 | 1014.1 |
| 20260831201522 | 96 | 130 | 5.0 | 14.0 | 0.00 | 0.00 | 0.00 | 49 | 1015.9 |
| 20260831200139 | 96 | 117 | 6.0 | 15.0 | 0.00 | 0.00 | 0.00 | 50 | 1014.4 |
| 20260831200035 | 96 | 113 | 5.0 | 13.0 | 0.00 | 0.00 | 0.00 | 50 | 1016.1 |
| 20260831194610 | 96 | 90 | 4.0 | 11.0 | 0.00 | 0.00 | 0.00 | 52 | 1014.7 |
| 20260831194525 | 96 | 69 | 4.0 | 11.0 | 0.00 | 0.00 | 0.00 | 51 | 1016.4 |
| 20260831193056 | 96 | 148 | 2.0 | 10.0 | 0.00 | 0.00 | 0.00 | 52 | 1014.8 |
| 20260831193015 | 96 | 259 | 2.0 | 9.0 | 0.00 | 0.00 | 0.00 | 52 | 1016.4 |
| 20260831191607 | 95 | 201 | 6.0 | 18.0 | 0.00 | 0.00 | 0.00 | 52 | 1015.4 |
| 20260831191511 | 95 | 175 | 5.0 | 18.0 | 0.00 | 0.00 | 0.00 | 52 | 1016.7 |
| 20260831190100 | 94 | 82 | 4.0 | 11.0 | 0.00 | 0.00 | 0.00 | 54 | 1015.5 |
| 20260831190019 | 94 | 90 | 4.0 | 11.0 | 0.00 | 0.00 | 0.00 | 54 | 1016.9 |
| 20260831184554 | 94 | 115 | 6.0 | 12.0 | 0.00 | 0.00 | 0.00 | 53 | 1015.6 |
| 20260831184507 | 94 | 124 | 7.0 | 12.0 | 0.00 | 0.00 | 0.00 | 54 | 1017.1 |
| 20260831183054 | 94 | 100 | 4.0 | 13.0 | 0.00 | 0.00 | 0.00 | 54 | 1015.9 |
| 20260831183003 | 94 | 126 | 4.0 | 13.0 | 0.00 | 0.00 | 0.00 | 56 | 1017.3 |
| 20260831181559 | 94 | 90 | 5.0 | 10.0 | 0.00 | 0.00 | 0.00 | 54 | 1015.9 |
| 20260831181502 | 94 | 109 | 5.0 | 10.0 | 0.00 | 0.00 | 0.00 | 55 | 1017.4 |
| 20260831180058 | 94 | 121 | 4.0 | 10.0 | 0.00 | 0.00 | 0.00 | 56 | 1016.1 |
| 20260831180006 | 94 | 172 | 5.0 | 10.0 | 0.00 | 0.00 | 0.00 | 56 | 1017.5 |
| 20260831174559 | 93 | 153 | 6.0 | 12.0 | 0.00 | 0.00 | 0.00 | 58 | 1017.8 |
| 20260831174553 | 93 | 132 | 6.0 | 12.0 | 0.00 | 0.00 | 0.00 | 57 | 1016.3 |
| 20260831173156 | 92 | 96 | 4.0 | 13.0 | 0.00 | 0.00 | 0.00 | 61 | 1018.1 |
| 20260831173106 | 92 | 86 | 6.0 | 13.0 | 0.00 | 0.00 | 0.00 | 61 | 1016.3 |
| 20260831171555 | 92 | 120 | 5.0 | 11.0 | 0.00 | 0.00 | 0.00 | 62 | 1016.2 |
| 20260831170055 | 92 | 217 | 3.0 | 9.0 | 0.00 | 0.00 | 0.00 | 63 | 1016.5 |
| 20260831170053 | 91 | 65 | 3.0 | 9.0 | 0.00 | 0.00 | 0.00 | 63 | 1018.3 |
| 20260831164556 | 90 | 136 | 1.0 | 10.0 | 0.00 | 0.00 | 0.00 | 67 | 1016.5 |
| 20260831164549 | 90 | 158 | 3.0 | 11.0 | 0.00 | 0.00 | 0.00 | 68 | 1018.1 |
| 20260831163057 | 90 | 170 | 4.0 | 11.0 | 0.00 | 0.00 | 0.00 | 67 | 1016.5 |
| 20260831163047 | 90 | 179 | 3.0 | 10.0 | 0.00 | 0.00 | 0.00 | 67 | 1018.2 |
| 20260831161553 | 89 | 192 | 3.0 | 13.0 | 0.00 | 0.00 | 0.00 | 69 | 1016.5 |
| 20260831161543 | 89 | 191 | 4.0 | 11.0 | 0.00 | 0.00 | 0.00 | 69 | 1018.3 |
| 20260831160041 | 88 | 183 | 2.0 | 11.0 | 0.00 | 0.00 | 0.00 | 70 | 1018.3 |
| 20260831154624 | 87 | 150 | 5.0 | 14.0 | 0.00 | 0.00 | 0.00 | 72 | 1016.7 |
| 20260831154537 | 87 | 150 | 4.0 | 14.0 | 0.00 | 0.00 | 0.00 | 73 | 1018.3 |
| 20260831153054 | 86 | 169 | 5.0 | 10.0 | 0.00 | 0.00 | 0.00 | 74 | 1016.4 |
| 20260831153034 | 86 | 169 | 6.0 | 9.0 | 0.00 | 0.00 | 0.00 | 75 | 1018.2 |
| 20260831151604 | 85 | 169 | 4.0 | 12.0 | 0.00 | 0.00 | 0.00 | 75 | 1016.3 |
| 20260831151532 | 85 | 169 | 5.0 | 12.0 | 0.00 | 0.00 | 0.00 | 76 | 1018.1 |
| 20260831150058 | 85 | 175 | 3.0 | 10.0 | 0.00 | 0.00 | 0.00 | 77 | 1016.4 |
| 20260831150031 | 85 | 175 | 3.0 | 10.0 | 0.00 | 0.00 | 0.00 | 78 | 1018.2 |
| 20260831144555 | 84 | 177 | 4.0 | 10.0 | 0.00 | 0.00 | 0.00 | 78 | 1016.4 |
| 20260831144529 | 84 | 177 | 4.0 | 10.0 | 0.00 | 0.00 | 0.00 | 79 | 1018.1 |
| 20260831143053 | 84 | 132 | 5.0 | 11.0 | 0.00 | 0.00 | 0.00 | 81 | 1016.4 |
| 20260831143025 | 84 | 124 | 5.0 | 10.0 | 0.00 | 0.00 | 0.00 | 82 | 1018.1 |
| 20260831141616 | 83 | 146 | 3.0 | 9.0 | 0.00 | 0.00 | 0.00 | 82 | 1016.3 |
| 20260831141524 | 83 | 148 | 3.0 | 9.0 | 0.00 | 0.00 | 0.00 | 83 | 1018.0 |
| 20260831140059 | 83 | 161 | 3.0 | 7.0 | 0.00 | 0.00 | 0.00 | 83 | 1016.2 |
| 20260831140033 | 83 | 144 | 3.0 | 7.0 | 0.00 | 0.00 | 0.00 | 84 | 1017.6 |
| 20260831134557 | 81 | 123 | 2.0 | 8.0 | 0.00 | 0.00 | 0.00 | 86 | 1016.2 |
| 20260831134521 | 81 | 150 | 2.0 | 5.0 | 0.00 | 0.00 | 0.00 | 87 | 1017.7 |
| 20260831133055 | 80 | 119 | 3.0 | 9.0 | 0.00 | 0.00 | 0.00 | 89 | 1015.9 |
| 20260831133019 | 80 | 139 | 4.0 | 11.0 | 0.00 | 0.00 | 0.00 | 90 | 1017.5 |
| 20260831131607 | 79 | 148 | 1.0 | 5.0 | 0.00 | 0.00 | 0.00 | 92 | 1015.8 |
| 20260831131517 | 79 | 152 | 2.0 | 5.0 | 0.00 | 0.00 | 0.00 | 93 | 1017.4 |
| 20260831130059 | 78 | 163 | 2.0 | 5.0 | 0.00 | 0.00 | 0.00 | 93 | 1015.8 |
| 20260831130017 | 78 | 147 | 2.0 | 4.0 | 0.00 | 0.00 | 0.00 | 93 | 1017.3 |
| 20260831124557 | 78 | 126 | 0.0 | 3.0 | 0.00 | 0.00 | 0.00 | 92 | 1015.7 |
| 20260831124517 | 78 | 126 | 0.0 | 3.0 | 0.00 | 0.00 | 0.00 | 93 | 1017.3 |
| 20260831123105 | 78 | 133 | 0.0 | 3.0 | 0.00 | 0.00 | 0.00 | 92 | 1015.5 |
| 20260831123015 | 78 | 133 | 1.0 | 3.0 | 0.00 | 0.00 | 0.00 | 92 | 1017.1 |
| 20260831121559 | 78 | 132 | 1.0 | 7.0 | 0.00 | 0.00 | 0.00 | 91 | 1015.5 |
| 20260831121515 | 78 | 132 | 0.0 | 7.0 | 0.00 | 0.00 | 0.00 | 92 | 1017.0 |
| 20260831120139 | 78 | 169 | 2.0 | 6.0 | 0.00 | 0.00 | 0.00 | 91 | 1015.5 |
| 20260831120121 | 78 | 174 | 1.0 | 6.0 | 0.00 | 0.00 | 0.00 | 92 | 1017.0 |
| 20260831114554 | 78 | 179 | 2.0 | 8.0 | 0.00 | 0.00 | 0.00 | 91 | 1015.5 |
| 20260831114552 | 78 | 138 | 3.0 | 8.0 | 0.00 | 0.00 | 0.00 | 91 | 1016.9 |
| 20260831113105 | 78 | 140 | 2.0 | 6.0 | 0.00 | 0.00 | 0.00 | 91 | 1015.4 |
| 20260831113053 | 78 | 161 | 3.0 | 5.0 | 0.00 | 0.00 | 0.00 | 91 | 1016.9 |
| 20260831111559 | 78 | 173 | 0.0 | 3.0 | 0.00 | 0.00 | 0.00 | 90 | 1015.4 |
| 20260831111556 | 78 | 165 | 0.0 | 3.0 | 0.00 | 0.00 | 0.00 | 91 | 1016.9 |
| 20260831110058 | 78 | 157 | 2.0 | 7.0 | 0.00 | 0.00 | 0.00 | 90 | 1015.5 |
| 20260831110050 | 78 | 157 | 2.0 | 7.0 | 0.00 | 0.00 | 0.00 | 91 | 1016.9 |
| 20260831104602 | 78 | 0 | 2.0 | 8.0 | 0.00 | 0.00 | 0.00 | 90 | 1015.4 |
| 20260831103057 | 79 | 159 | 1.0 | 11.0 | 0.00 | 0.00 | 0.00 | 90 | 1015.4 |
| 20260831103047 | 79 | 155 | 2.0 | 10.0 | 0.00 | 0.00 | 0.00 | 90 | 1016.8 |
| 20260831101603 | 79 | 178 | 3.0 | 10.0 | 0.00 | 0.00 | 0.00 | 89 | 1015.4 |
| 20260831101547 | 79 | 164 | 2.0 | 10.0 | 0.00 | 0.00 | 0.00 | 90 | 1016.9 |
| 20260831100106 | 79 | 134 | 4.0 | 9.0 | 0.00 | 0.00 | 0.00 | 89 | 1015.5 |
| 20260831100047 | 79 | 176 | 4.0 | 9.0 | 0.00 | 0.00 | 0.00 | 90 | 1017.0 |
| 20260831094554 | 79 | 155 | 3.0 | 14.0 | 0.00 | 0.00 | 0.00 | 89 | 1015.4 |
| 20260831094544 | 79 | 172 | 2.0 | 14.0 | 0.00 | 0.00 | 0.00 | 89 | 1016.9 |
| 20260831093055 | 79 | 161 | 6.0 | 14.0 | 0.00 | 0.00 | 0.00 | 89 | 1015.5 |
| 20260831093051 | 79 | 159 | 6.0 | 14.0 | 0.00 | 0.00 | 0.00 | 89 | 1016.8 |
| 20260831091557 | 79 | 128 | 2.0 | 12.0 | 0.00 | 0.00 | 0.00 | 88 | 1015.5 |
| 20260831091543 | 79 | 174 | 2.0 | 12.0 | 0.00 | 0.00 | 0.00 | 89 | 1017.0 |
| 20260831090103 | 79 | 161 | 3.0 | 12.0 | 0.00 | 0.00 | 0.00 | 88 | 1015.5 |
| 20260831090054 | 79 | 161 | 3.0 | 12.0 | 0.00 | 0.00 | 0.00 | 89 | 1017.0 |
| 20260831084603 | 79 | 132 | 4.0 | 9.0 | 0.00 | 0.00 | 0.00 | 88 | 1015.5 |
| 20260831084552 | 79 | 139 | 3.0 | 9.0 | 0.00 | 0.00 | 0.00 | 88 | 1017.1 |
| 20260831083057 | 79 | 164 | 1.0 | 8.0 | 0.00 | 0.00 | 0.00 | 87 | 1015.6 |
| 20260831083040 | 79 | 121 | 2.0 | 8.0 | 0.00 | 0.00 | 0.00 | 88 | 1017.1 |
| 20260831081556 | 79 | 138 | 3.0 | 7.0 | 0.00 | 0.00 | 0.00 | 87 | 1015.7 |
| 20260831081541 | 79 | 138 | 3.0 | 7.0 | 0.00 | 0.00 | 0.00 | 88 | 1017.1 |
| 20260831080055 | 79 | 132 | 2.0 | 9.0 | 0.00 | 0.00 | 0.00 | 87 | 1015.7 |
| 20260831080041 | 79 | 175 | 2.0 | 9.0 | 0.00 | 0.00 | 0.00 | 87 | 1017.1 |
| 20260831074549 | 79 | 140 | 4.0 | 10.0 | 0.00 | 0.00 | 0.00 | 87 | 1015.6 |
| 20260831074537 | 79 | 140 | 4.0 | 10.0 | 0.00 | 0.00 | 0.00 | 87 | 1017.1 |
| 20260831073102 | 79 | 169 | 3.0 | 8.0 | 0.00 | 0.00 | 0.00 | 86 | 1015.6 |
| 20260831073035 | 79 | 169 | 3.0 | 8.0 | 0.00 | 0.00 | 0.00 | 86 | 1017.2 |
| 20260831071555 | 79 | 153 | 4.0 | 10.0 | 0.00 | 0.00 | 0.00 | 85 | 1015.8 |
| 20260831071534 | 79 | 160 | 2.0 | 10.0 | 0.00 | 0.00 | 0.00 | 86 | 1017.4 |
| 20260831070104 | 80 | 132 | 3.0 | 9.0 | 0.00 | 0.00 | 0.00 | 84 | 1015.7 |
| 20260831070043 | 80 | 132 | 4.0 | 9.0 | 0.00 | 0.00 | 0.00 | 85 | 1017.3 |
| 20260831064557 | 80 | 121 | 3.0 | 9.0 | 0.00 | 0.00 | 0.00 | 83 | 1015.7 |
| 20260831064530 | 80 | 121 | 4.0 | 9.0 | 0.00 | 0.00 | 0.00 | 83 | 1017.2 |
| 20260831063058 | 80 | 144 | 3.0 | 13.0 | 0.00 | 0.00 | 0.00 | 82 | 1015.6 |
| 20260831063028 | 80 | 166 | 3.0 | 13.0 | 0.00 | 0.00 | 0.00 | 82 | 1017.1 |
| 20260831061600 | 81 | 153 | 5.0 | 16.0 | 0.00 | 0.00 | 0.00 | 81 | 1015.7 |
| 20260831061527 | 81 | 177 | 5.0 | 15.0 | 0.00 | 0.00 | 0.00 | 81 | 1017.2 |
| 20260831060108 | 81 | 132 | 4.0 | 9.0 | 0.00 | 0.00 | 0.00 | 80 | 1015.7 |
| 20260831060025 | 81 | 148 | 4.0 | 9.0 | 0.00 | 0.00 | 0.00 | 80 | 1017.1 |
| 20260831054557 | 82 | 171 | 3.0 | 12.0 | 0.00 | 0.00 | 0.00 | 78 | 1015.6 |
| 20260831054523 | 82 | 116 | 4.0 | 12.0 | 0.00 | 0.00 | 0.00 | 79 | 1017.1 |
| 20260831053110 | 82 | 61 | 5.0 | 11.0 | 0.00 | 0.00 | 0.00 | 77 | 1015.5 |
| 20260831053020 | 82 | 107 | 6.0 | 16.0 | 0.00 | 0.00 | 0.00 | 77 | 1016.8 |
| 20260831051604 | 82 | 153 | 4.0 | 15.0 | 0.00 | 0.00 | 0.00 | 75 | 1015.4 |
| 20260831051532 | 82 | 157 | 5.0 | 15.0 | 0.00 | 0.00 | 0.00 | 75 | 1016.7 |
| 20260831050112 | 83 | 160 | 6.0 | 14.0 | 0.00 | 0.00 | 0.00 | 73 | 1015.2 |
| 20260831050015 | 83 | 115 | 6.0 | 14.0 | 0.00 | 0.00 | 0.00 | 74 | 1016.7 |
| 20260831044553 | 84 | 130 | 5.0 | 11.0 | 0.00 | 0.00 | 0.00 | 70 | 1015.1 |
| 20260831044521 | 84 | 117 | 5.0 | 10.0 | 0.00 | 0.00 | 0.00 | 71 | 1016.6 |
| 20260831043102 | 84 | 173 | 8.0 | 14.0 | 0.00 | 0.00 | 0.00 | 69 | 1015.1 |
| 20260831043013 | 84 | 159 | 8.0 | 14.0 | 0.00 | 0.00 | 0.00 | 70 | 1016.5 |
| 20260831041608 | 85 | 139 | 5.0 | 14.0 | 0.00 | 0.00 | 0.00 | 68 | 1014.9 |
| 20260831041512 | 85 | 151 | 5.0 | 15.0 | 0.00 | 0.00 | 0.00 | 69 | 1016.3 |
| 20260831040058 | 85 | 146 | 8.0 | 17.0 | 0.00 | 0.00 | 0.00 | 67 | 1014.5 |
| 20260831040011 | 85 | 130 | 7.0 | 17.0 | 0.00 | 0.00 | 0.00 | 68 | 1016.1 |
| 20260831034551 | 86 | 163 | 8.0 | 18.0 | 0.00 | 0.00 | 0.00 | 65 | 1014.3 |
| 20260831034511 | 86 | 162 | 8.0 | 18.0 | 0.00 | 0.00 | 0.00 | 65 | 1016.2 |
| 20260831033106 | 87 | 101 | 9.0 | 16.0 | 0.00 | 0.00 | 0.00 | 63 | 1014.3 |
| 20260831033016 | 87 | 134 | 9.0 | 15.0 | 0.00 | 0.00 | 0.00 | 63 | 1016.0 |
| 20260831031549 | 87 | 113 | 6.0 | 14.0 | 0.00 | 0.00 | 0.00 | 63 | 1014.2 |
| 20260831031514 | 87 | 163 | 5.0 | 14.0 | 0.00 | 0.00 | 0.00 | 63 | 1015.9 |
| 20260831030059 | 88 | 137 | 6.0 | 18.0 | 0.00 | 0.00 | 0.00 | 63 | 1013.9 |
| 20260831030009 | 88 | 118 | 6.0 | 18.0 | 0.00 | 0.00 | 0.00 | 63 | 1015.6 |
| 20260831024554 | 88 | 113 | 6.0 | 14.0 | 0.00 | 0.00 | 0.00 | 63 | 1013.6 |
| 20260831024509 | 88 | 158 | 7.0 | 14.0 | 0.00 | 0.00 | 0.00 | 64 | 1015.5 |
| 20260831023058 | 89 | 120 | 7.0 | 17.0 | 0.00 | 0.00 | 0.00 | 63 | 1013.4 |
| 20260831023007 | 89 | 136 | 8.0 | 17.0 | 0.00 | 0.00 | 0.00 | 63 | 1015.1 |
| 20260831021557 | 89 | 141 | 6.0 | 17.0 | 0.00 | 0.00 | 0.00 | 62 | 1012.9 |
| 20260831021512 | 89 | 115 | 6.0 | 15.0 | 0.00 | 0.00 | 0.00 | 62 | 1014.5 |
| 20260831020110 | 90 | 123 | 9.0 | 18.0 | 0.00 | 0.00 | 0.00 | 61 | 1012.7 |
| 20260831020007 | 90 | 138 | 9.0 | 18.0 | 0.00 | 0.00 | 0.00 | 61 | 1014.5 |
| 20260831014555 | 90 | 74 | 4.0 | 16.0 | 0.00 | 0.00 | 0.00 | 59 | 1012.5 |
| 20260831014508 | 90 | 131 | 5.0 | 15.0 | 0.00 | 0.00 | 0.00 | 60 | 1014.4 |
| 20260831013104 | 91 | 134 | 6.0 | 16.0 | 0.00 | 0.00 | 0.00 | 57 | 1012.4 |
| 20260831013005 | 91 | 142 | 6.0 | 16.0 | 0.00 | 0.00 | 0.00 | 58 | 1014.0 |
| 20260831011556 | 92 | 126 | 8.0 | 24.0 | 0.00 | 0.00 | 0.00 | 55 | 1012.4 |
| 20260831011505 | 92 | 140 | 8.0 | 22.0 | 0.00 | 0.00 | 0.00 | 56 | 1014.1 |
| 20260831010004 | 93 | 140 | 4.0 | 9.0 | 0.00 | 0.00 | 0.00 | 51 | 1013.8 |
| 20260831004600 | 93 | 147 | 3.0 | 8.0 | 0.00 | 0.00 | 0.00 | 50 | 1012.2 |
| 20260831004504 | 93 | 130 | 2.0 | 8.0 | 0.00 | 0.00 | 0.00 | 50 | 1013.6 |
| 20260831003055 | 93 | 132 | 3.0 | 10.0 | 0.00 | 0.00 | 0.00 | 49 | 1011.9 |
| 20260831003003 | 93 | 121 | 3.0 | 10.0 | 0.00 | 0.00 | 0.00 | 49 | 1013.4 |
| 20260831001552 | 94 | 150 | 3.0 | 6.0 | 0.00 | 0.00 | 0.00 | 48 | 1011.9 |
| 20260831001504 | 94 | 159 | 3.0 | 5.0 | 0.00 | 0.00 | 0.00 | 49 | 1013.4 |
| 20260831000112 | 94 | 174 | 3.0 | 9.0 | 0.00 | 0.00 | 0.00 | 48 | 1011.9 |
| 20260831000002 | 94 | 180 | 4.0 | 7.0 | 0.00 | 0.00 | 0.00 | 48 | 1013.4 |
| 20260830234556 | 95 | 130 | 3.0 | 9.0 | 0.00 | 0.00 | 0.00 | 47 | 1012.0 |
| 20260830234503 | 95 | 129 | 3.0 | 8.0 | 0.00 | 0.00 | 0.00 | 48 | 1013.6 |
| 20260830233100 | 95 | 133 | 5.0 | 11.0 | 0.00 | 0.00 | 0.00 | 47 | 1013.5 |
| 20260830233055 | 95 | 144 | 5.0 | 11.0 | 0.00 | 0.00 | 0.00 | 47 | 1011.9 |
| 20260830231605 | 95 | 125 | 4.0 | 12.0 | 0.00 | 0.00 | 0.00 | 48 | 1013.5 |
| 20260830231554 | 95 | 146 | 4.0 | 12.0 | 0.00 | 0.00 | 0.00 | 48 | 1012.1 |
| 20260830230059 | 96 | 126 | 4.0 | 11.0 | 0.00 | 0.00 | 0.00 | 47 | 1013.5 |
| 20260830224557 | 96 | 94 | 2.0 | 7.0 | 0.00 | 0.00 | 0.00 | 48 | 1013.8 |
| 20260830223056 | 96 | 159 | 4.0 | 11.0 | 0.00 | 0.00 | 0.00 | 48 | 1013.9 |
| 20260830223054 | 96 | 123 | 4.0 | 11.0 | 0.00 | 0.00 | 0.00 | 47 | 1012.4 |
| 20260830221555 | 97 | 157 | 7.0 | 12.0 | 0.00 | 0.00 | 0.00 | 47 | 1013.9 |
| 20260830221553 | 97 | 143 | 5.0 | 10.0 | 0.00 | 0.00 | 0.00 | 47 | 1012.4 |
| 20260830220106 | 96 | 197 | 1.0 | 8.0 | 0.00 | 0.00 | 0.00 | 50 | 1012.3 |
| 20260830220101 | 96 | 135 | 2.0 | 7.0 | 0.00 | 0.00 | 0.00 | 50 | 1014.0 |